Regional Weather Roundup
Issued by NWS Lake Charles, LA

Home | Current Version | Previous Version | Text Only | Print | Product List | Glossary On
Versions: 1 2 3 4 5 6 7 8 9 10 11 12 13 14 15 16 17 18 19 20 21 22 23 24 25
000
ASUS44 KLCH 111911
RWRLCH
REGIONAL WEATHER ROUNDUP
NATIONAL WEATHER SERVICE LAKE CHARLES LA
100 PM CST MON DEC 11 2017

Note: "fair" indicates few or no clouds below 12,000 feet with no
significant weather and/or obstructions to visibility.


ACROSS SOUTHEAST TEXAS

CITY           SKY/WX    TMP DP  RH WIND       PRES   REMARKS
BEAUMONT       SUNNY     73  37  27 SW9       30.22F
BEAUMONT CITY  FAIR      73  31  20 W7        30.23F
ORANGE         CLEAR     71  40  31 SW8       30.24F
JASPER         CLOUDY    66  40  38 SW3       30.23F
$$

ACROSS CENTRAL LOUISIANA

CITY           SKY/WX    TMP DP  RH WIND       PRES   REMARKS
LEESVILLE      SUNNY     68  39  35 SW7       30.18F
FULLERTON      FAIR      72  35  25 VRB3      30.15F
ALEXANDRIA INT SUNNY     67  39  35 SW5       30.16F
ESLER FIELD    SUNNY     70  34  26 W6        30.16F
DERIDDER       FAIR     N/A N/A N/A W3        30.22F
OAKDALE        CLOUDY    66  41  39 SW3       30.19F
OPELOUSAS      FAIR      64  42  45 SW6       30.20F
$$

ACROSS SOUTHWEST AND SOUTH CENTRAL LOUISIANA

CITY           SKY/WX    TMP DP  RH WIND       PRES   REMARKS
SULPHUR        CLEAR     71  40  32 SW9       30.23F
LAKE CHARLES   SUNNY     68  44  42 SW8       30.22F
CHENNAULT INT  NOT AVBL
CAMERON PHI    CLEAR     63  50  63 SW12G17   30.24F
DEQUINCY       FAIR      69  38  33 S6        30.22F
JENNINGS       FAIR      67  42  41 SW6       30.22F
LAFAYETTE      SUNNY     67  39  35 W7        30.21F
NEW IBERIA     SUNNY     68  42  38 SW8       30.22F
ABBEVILLE      FAIR      67  43  41 SW12      30.23F
PATTERSON      SUNNY     65  48  54 W12       30.23F
SALT POINT       N/A     59  51  75 VRB7      30.23F
$$

SELECTED SITES ACROSS THE REGION

CITY           SKY/WX    TMP DP  RH WIND       PRES   REMARKS
HOUSTON BUSH   MOSUNNY   72  32  23 W5        30.23F
HOUSTON HOBBY  MOSUNNY   71  36  27 SW6       30.24F
GALVESTON      SUNNY     66  53  63 S12       30.26F
COLLEGE STAT   CLOUDY    71  38  29 VRB3      30.22F
CONROE         SUNNY     72  35  25 SW6       30.23F
HUNTSVILLE     CLOUDY    71  33  24 W5        30.21F
LUFKIN         SUNNY     70  39  32 VRB6      30.19F
SHREVEPORT     MOSUNNY   75  21  13 W12       30.13F
MONROE         SUNNY     69  32  25 W7        30.14F
NATCHEZ MS     SUNNY     65  35  33 SW8       30.16F
BATON ROUGE    SUNNY     66  37  34 SW8       30.20F
N.O. INTL ARPT PTSUNNY   68  38  33 SW10      30.21F
SLIDELL        SUNNY     62  38  40 W7        30.20F
$$

MARINE REPORTS

STATION/POSITION TIME  SKY/WX   TEMP    WIND        PRES    VSBY
                                AIR SEA DIR/SP/G
                 (UTC)          (F)     (DEG/KT/KT) (MB)    (MI)
BUOY 30 S HIGH I 1750            60 60  260/ 12/ 14 1025.7
WVE H/P(F/S)=  1/ 3

SEA RIM ST PARK  1900            60     220/ 13/ 14 1024.2F
PORT ARTHUR      1848            67 56  220/  7/  8 1023.7F
SABINE PASS N    1848            66 58  210/  6/ 10 1025.4F
TEXAS POINT      NOT AVBL
CALCASIEU PASS   1848            60 53  250/ 10/ 12 1022.8F
LK CHARLES BEACH 1848            66 56              1022.8F
MARSH ISLAND     1800            61                   N/A
FRESH WATER LOCK 1848            62 53  250/ 11/ 13 1023.9F
AMERADA PASS     1848            60 51  200/  4/  8 1024.1F
$$




USA.gov is the U.S. government's official web portal to all federal, state and local government web resources and services.